Theta_e
312 312 312 312 312 312 311 311 312 312 312 312 312 312 312 313 313 313 313 313 313 314 314 313 314 313 313 313 313 313 313 309 306 304 303 307 312 317 322 321 322 321 323 313 311 310 306 307 307 307 306 305 304 303 306 307 303 303 298 296 293 295 292 296 295 296 296 297 299 300 298 299 298 302 302 313 329 330 331 330 334 336 336 337 337 339 339 339
312 312 312 312 312 312 312 311 311 311 311 311 311 312 312 312 313 313 313 313 313 313 313 313 313 313 313 313 313 313 311 307 305 304 303 313 317 321 323 325 324 324 320 311 309 307 305 303 304 306 303 301 305 302 306 303 306 300 296 296 293 295 296 299 298 298 297 298 300 300 299 298 300 299 303 307 319 326 325 329 331 330 333 336 337 337 337 338
311 312 312 312 311 312 312 311 311 311 311 311 312 312 312 312 313 313 313 313 313 313 313 313 313 313 313 313 313 313 309 306 303 301 313 324 325 322 324 324 326 325 313 309 307 309 307 305 305 303 302 301 304 301 304 303 305 301 298 294 295 296 297 296 298 298 298 299 299 300 300 298 301 300 307 310 312 324 323 325 327 328 327 330 333 335 335 336
311 311 311 312 312 312 312 312 312 312 312 312 312 312 312 313 313 312 312 313 313 313 313 313 313 313 313 313 314 312 307 301 301 308 312 324 329 325 324 324 326 324 308 307 305 304 305 306 305 304 302 301 301 302 300 303 302 301 298 296 296 296 297 299 298 300 301 299 299 299 299 300 302 300 307 314 304 309 325 329 329 328 329 330 333 334 335 334
311 311 311 311 311 312 312 312 312 312 311 312 312 312 312 313 312 312 313 313 312 313 313 313 313 313 313 314 312 311 305 295 304 309 312 328 332 324 324 328 328 318 309 305 306 305 307 305 303 301 301 298 300 301 301 302 303 300 299 301 298 300 299 302 302 302 301 299 299 299 299 300 302 301 306 302 300 302 318 330 333 333 333 332 332 334 334 333
310 311 311 311 311 311 312 312 311 311 311 311 311 312 312 312 312 312 312 312 312 312 312 312 313 313 313 313 311 307 295 288 300 302 323 334 328 325 329 328 325 308 306 305 304 304 305 303 303 298 298 300 299 297 300 302 302 297 301 300 301 302 300 302 302 303 300 301 300 299 300 299 300 299 301 300 301 310 324 332 335 336 335 335 336 334 332 331
310 310 310 311 311 311 311 311 311 311 311 311 311 312 312 312 311 312 312 312 312 312 312 312 313 313 312 310 308 300 295 295 301 306 332 333 328 329 328 323 317 306 306 303 303 302 302 301 301 298 298 298 298 299 301 301 301 299 297 299 301 299 300 302 303 303 302 299 300 301 300 297 299 297 301 302 311 317 330 336 336 337 337 337 334 333 332 330
310 310 310 310 311 311 311 311 311 311 311 311 311 311 311 311 311 311 312 312 311 312 312 312 312 312 312 307 301 297 293 295 301 301 333 332 327 328 321 312 307 305 305 304 302 301 302 300 298 299 298 295 297 300 301 300 300 299 298 299 301 301 302 303 302 300 300 299 300 298 296 299 299 299 299 300 307 326 335 337 337 337 337 336 334 332 332 331
310 310 310 310 310 310 311 311 311 311 311 311 311 311 311 311 311 311 311 311 311 311 311 311 312 311 311 304 296 292 294 299 299 312 327 325 324 321 317 312 309 305 302 302 303 302 302 299 299 300 294 296 299 299 299 299 297 300 300 301 301 302 303 301 300 300 300 299 298 297 298 299 299 298 298 301 316 333 336 335 336 335 334 334 333 332 332 331
310 310 310 310 310 310 310 310 311 311 311 311 311 311 311 311 311 311 311 311 311 311 310 311 312 310 308 306 295 290 297 299 317 324 323 321 318 315 312 313 308 305 303 300 300 302 301 300 301 301 300 299 300 299 299 299 297 300 300 300 301 301 299 299 297 299 298 296 297 297 298 298 299 297 298 324 330 334 334 333 334 333 331 333 332 331 333 331
310 309 310 310 310 310 310 310 310 310 311 311 311 310 311 310 310 310 311 310 310 310 310 311 311 310 304 302 293 289 299 315 317 322 320 317 314 311 311 310 309 307 306 300 301 303 302 302 301 302 301 298 300 298 299 300 300 299 299 297 297 296 296 297 295 296 297 299 298 298 297 297 298 297 299 311 331 334 331 331 331 331 331 332 332 331 331 331
309 309 309 310 309 310 310 310 310 310 311 310 310 310 310 310 310 310 310 310 310 310 310 310 310 307 306 298 295 294 299 317 317 319 318 314 311 311 311 312 309 309 307 304 303 302 302 303 302 301 296 302 296 298 297 300 298 299 297 295 296 296 297 296 296 297 296 299 298 299 297 296 296 297 300 315 333 334 332 330 330 330 330 331 331 330 329 330
309 309 309 309 309 309 310 310 310 310 310 310 310 310 310 310 310 310 310 310 310 310 310 310 309 307 301 294 296 302 303 312 307 307 315 306 305 308 311 311 311 310 309 307 304 305 302 303 304 301 302 301 300 297 298 300 298 297 296 295 294 295 295 296 295 295 295 297 296 298 291 295 296 299 298 322 331 331 329 329 329 329 329 330 330 328 327 330
308 309 309 309 309 309 309 310 310 310 310 310 310 309 309 309 310 310 310 309 310 310 310 311 309 303 299 292 297 299 303 304 305 304 305 307 304 305 308 308 310 308 307 305 304 304 303 303 305 303 303 301 299 303 299 297 296 296 295 295 292 292 292 296 295 296 295 296 295 299 292 295 298 299 300 315 331 328 327 328 329 327 328 329 329 328 327 329
308 308 308 309 309 309 309 309 310 310 309 310 310 309 308 308 309 310 311 310 309 309 310 312 308 303 297 297 304 306 312 309 304 304 307 304 303 303 306 306 307 308 305 306 304 302 303 303 303 301 299 301 300 299 295 295 294 294 293 291 291 290 293 296 297 296 295 297 298 297 293 294 297 299 299 320 329 329 326 327 328 327 327 329 329 327 327 328
308 308 308 308 308 308 309 309 309 309 309 309 309 308 308 309 311 311 309 309 309 311 310 303 303 300 294 293 301 316 312 304 305 310 310 306 304 302 306 305 305 304 305 305 304 303 303 303 299 299 299 299 298 295 294 294 294 292 292 292 290 291 291 293 295 294 295 295 298 296 293 294 297 297 299 320 328 328 325 327 328 328 328 328 329 329 327 327
308 308 308 308 308 308 308 308 308 309 309 308 308 308 308 309 311 310 310 310 310 310 307 302 303 305 292 299 306 301 302 306 308 312 308 308 307 304 304 303 302 301 302 302 302 302 301 299 300 299 299 296 296 296 292 290 290 291 291 291 291 290 291 290 296 296 297 297 295 296 294 296 298 298 302 317 328 326 324 326 327 328 327 328 329 329 327 327
308 308 308 308 307 308 308 308 308 309 308 308 307 307 305 308 311 310 309 309 309 308 306 308 303 295 292 299 295 299 304 305 307 310 309 310 308 304 305 302 299 301 301 300 300 298 299 297 299 295 296 296 295 294 290 287 290 290 291 290 291 290 290 290 290 294 296 296 295 295 295 295 298 299 298 307 324 325 324 324 326 328 328 328 328 328 328 327
307 307 307 307 307 307 308 308 308 308 308 307 307 306 309 310 307 308 305 305 300 295 291 295 293 287 289 295 299 302 303 306 307 306 305 307 307 307 306 304 302 301 298 299 298 298 298 297 298 295 292 293 293 294 293 291 292 291 291 290 290 290 291 290 293 296 295 295 294 295 294 295 297 299 300 298 310 322 322 326 326 327 328 328 327 327 328 328
307 307 307 307 307 307 307 307 307 308 307 305 303 303 304 298 297 294 302 302 298 298 296 296 297 296 297 298 299 305 307 306 303 303 308 309 307 305 304 304 301 302 299 297 296 298 298 294 292 292 294 295 295 296 296 294 293 291 291 291 291 290 292 291 292 296 297 294 294 295 296 295 297 299 301 300 300 316 322 322 323 325 326 327 327 327 327 327
307 307 307 307 307 307 307 307 307 307 306 305 301 297 295 295 293 293 295 297 302 302 300 300 300 298 298 300 302 302 299 300 302 304 307 312 307 305 301 302 300 298 298 297 297 300 298 293 293 295 295 296 297 297 296 293 293 292 292 291 291 290 291 292 293 296 295 294 293 295 294 295 297 300 302 301 299 303 316 320 322 323 325 327 327 326 327 328
306 307 307 307 307 307 307 307 307 306 304 302 299 295 296 296 300 300 298 293 298 298 299 300 301 299 303 303 304 304 301 297 298 301 304 308 303 300 298 299 297 295 296 296 296 295 293 291 295 296 296 297 296 295 295 295 293 292 292 291 290 291 292 293 292 294 294 294 293 294 293 295 298 300 301 301 300 301 309 319 322 323 324 326 327 326 327 328
306 307 307 307 307 307 307 307 306 303 301 300 297 296 298 302 303 305 302 296 294 298 296 296 296 297 299 302 303 305 297 295 293 298 300 305 300 300 299 296 296 296 294 297 294 293 290 293 297 296 296 297 293 294 294 294 294 292 291 290 289 291 289 289 294 293 296 294 293 294 293 295 299 301 300 301 300 301 302 306 319 325 325 326 327 326 327 326
306 306 306 307 307 306 307 306 303 302 299 298 296 298 303 304 304 304 300 293 292 297 296 298 298 298 298 298 303 302 297 296 296 296 305 304 300 301 299 298 295 295 294 295 296 294 293 294 294 295 295 296 294 293 294 293 292 293 293 291 291 289 291 291 292 294 295 296 295 293 293 294 297 296 299 299 301 300 299 299 301 313 326 328 330 329 328 327
306 306 306 306 306 306 306 305 299 299 300 298 297 302 304 306 305 304 298 295 292 293 300 298 299 300 301 307 304 299 299 297 298 300 304 305 298 299 299 299 297 294 295 294 294 294 294 297 295 294 292 293 294 291 293 293 290 292 293 293 292 293 291 292 292 291 291 291 295 292 289 290 295 295 296 300 302 307 307 301 299 301 313 326 326 327 328 328
306 306 306 306 306 305 306 300 297 299 298 297 301 303 304 304 304 305 299 289 286 293 297 293 301 296 307 299 301 300 299 293 300 301 304 306 307 302 297 297 298 293 293 293 294 296 296 296 295 293 293 292 293 293 293 294 291 289 292 294 294 293 293 291 290 291 287 287 293 295 288 286 297 295 298 302 302 305 309 308 305 302 308 320 324 326 326 326
305 305 305 306 305 305 299 293 301 300 296 297 303 304 304 304 306 303 294 285 283 293 293 296 296 297 303 300 300 297 286 290 300 302 303 306 302 304 298 295 295 295 295 298 293 291 293 293 294 294 294 292 291 291 292 293 292 289 294 292 293 292 291 291 291 291 290 294 296 292 293 289 289 295 300 303 302 304 307 308 311 310 313 318 323 324 326 326
305 305 305 305 305 304 300 301 299 296 295 301 304 304 304 304 304 303 291 276 277 294 290 295 297 304 300 299 302 295 292 296 293 297 303 304 304 300 300 294 295 294 294 295 287 296 296 292 294 292 293 291 291 294 294 294 292 293 294 293 292 293 292 292 291 291 291 291 289 292 293 288 289 294 297 303 301 303 305 307 309 311 314 319 322 324 325 326
305 305 305 305 305 305 304 301 299 297 301 303 304 304 304 304 302 295 284 275 289 291 302 292 303 297 296 301 298 298 296 298 292 297 302 303 304 302 296 297 296 296 296 297 292 294 293 296 295 295 293 291 294 293 294 294 292 295 293 293 293 292 292 292 291 290 290 289 285 291 293 287 288 295 297 303 300 302 304 306 309 311 314 317 321 324 325 326
305 305 305 305 304 303 301 303 299 303 304 304 303 304 303 300 295 285 279 274 292 285 293 294 293 290 293 293 294 296 294 295 296 299 300 298 300 301 297 300 297 295 293 294 294 295 294 300 297 295 294 296 296 294 294 295 296 294 295 294 292 292 293 292 292 292 290 283 288 292 292 291 285 292 296 302 302 303 304 307 310 311 315 318 321 324 325 325
305 305 305 305 299 301 300 296 299 302 303 304 304 299 298 294 287 278 272 284 289 291 292 290 288 293 290 288 288 290 293 295 295 298 295 298 297 298 298 296 298 295 293 294 293 294 295 294 294 296 299 294 296 293 292 295 294 294 293 292 292 291 291 291 290 291 284 283 290 290 291 291 284 290 297 301 305 307 307 306 308 309 313 318 321 324 325 324
304 304 305 303 303 304 297 296 297 304 304 304 302 299 294 282 285 277 279 291 282 287 286 287 289 290 290 288 286 288 291 292 295 295 294 294 294 293 295 292 294 287 287 289 289 292 292 293 295 295 301 296 293 293 292 292 293 293 292 291 287 285 285 282 286 281 283 284 288 288 290 288 287 293 299 303 307 308 310 310 310 310 314 318 321 322 322 322
304 304 305 304 305 302 302 305 305 305 305 303 297 294 288 279 274 282 281 286 282 288 287 291 288 290 289 287 288 290 291 290 294 295 295 294 294 294 294 295 295 294 286 291 289 289 291 293 292 294 295 298 296 291 290 289 291 291 289 289 286 282 280 276 282 283 285 289 288 288 291 287 293 296 304 305 308 311 312 313 315 316 317 316 319 319 317 319
304 304 302 303 303 303 305 306 305 305 302 300 299 290 281 275 276 290 285 285 286 290 289 288 290 289 287 287 289 289 292 295 293 294 295 293 293 291 294 294 293 293 295 288 287 288 284 286 292 292 292 297 295 295 294 294 291 291 293 291 289 288 284 278 283 280 283 286 289 291 287 286 289 296 305 308 311 313 313 314 314 314 315 314 315 315 316 317
304 303 302 301 302 304 305 306 306 306 300 298 289 285 276 276 280 281 283 285 286 288 288 290 286 285 287 287 288 290 291 293 296 293 292 292 290 292 292 293 293 295 292 288 289 287 287 288 294 295 293 294 294 297 296 292 291 291 292 293 290 288 294 286 286 287 286 286 285 287 288 294 295 303 305 309 313 312 312 312 312 312 313 314 314 314 314 314
302 301 301 301 300 304 305 305 305 303 299 294 286 278 276 284 281 283 286 288 287 287 288 288 285 285 285 287 288 288 292 293 296 294 293 292 293 292 293 294 294 295 293 289 291 286 286 287 293 294 293 294 296 296 295 297 287 291 290 288 291 296 294 285 284 285 283 284 283 290 292 295 300 300 307 309 310 310 310 310 311 311 311 312 312 313 313 314
299 301 302 302 303 306 305 305 305 299 295 290 284 277 284 284 285 286 292 289 290 289 286 282 286 284 284 285 287 288 290 294 294 293 290 293 292 293 292 294 295 294 296 297 289 292 288 288 293 291 292 295 294 295 296 295 296 291 288 292 294 295 297 291 284 284 284 281 282 288 288 292 293 290 304 306 307 307 307 308 309 310 311 311 312 313 313 315
298 298 303 306 306 305 306 305 303 296 293 290 281 289 285 285 287 289 289 291 292 290 287 284 286 286 285 286 286 288 290 288 290 294 292 293 290 298 296 295 297 295 296 297 294 293 291 286 292 291 292 294 295 294 293 294 295 294 293 297 292 287 286 289 287 279 279 278 282 288 288 290 292 294 300 302 304 305 306 307 307 308 310 311 312 312 313 315
298 300 302 304 305 306 305 305 302 299 294 285 281 282 286 287 290 290 292 292 292 289 286 286 285 287 287 286 287 287 287 287 289 291 290 292 290 296 297 297 296 298 297 295 294 294 293 287 290 292 292 294 294 294 288 291 295 295 295 294 295 294 293 287 287 290 287 281 280 282 288 286 296 297 302 302 305 305 306 306 307 309 309 310 310 311 313 314
299 300 299 306 306 306 306 305 302 296 293 284 286 286 288 290 294 295 293 294 291 289 289 287 286 286 289 289 288 287 289 288 290 290 290 295 292 298 297 301 296 298 295 295 295 295 289 293 284 293 292 293 291 295 293 292 291 291 292 291 293 295 294 294 292 289 287 283 283 283 282 290 295 298 301 301 305 307 307 307 308 309 310 310 312 314 315 314
296 299 299 306 306 307 306 302 298 293 290 289 288 289 291 292 295 295 296 295 295 295 292 289 290 288 288 288 288 288 288 289 290 291 291 293 293 290 299 298 298 298 299 294 295 297 290 288 286 292 291 291 292 294 295 294 294 292 293 291 293 291 289 285 284 289 289 288 282 282 282 292 295 303 303 303 306 308 308 308 308 309 310 312 313 314 315 314
298 295 297 306 307 307 303 296 292 291 291 290 290 292 291 298 293 293 294 294 294 294 294 293 291 290 289 289 289 288 289 289 290 292 291 291 294 294 298 298 297 300 298 293 295 298 297 293 292 287 290 292 294 296 296 297 296 295 293 292 293 294 294 289 282 286 288 287 288 289 285 287 298 302 304 305 307 308 309 309 308 309 310 312 313 314 315 315
298 296 304 306 308 304 298 290 290 290 291 292 293 293 294 293 292 293 292 293 292 292 292 290 291 290 290 289 289 289 291 290 290 291 292 294 295 296 297 298 297 298 300 299 296 299 305 293 289 289 292 293 295 295 295 295 296 295 296 296 295 293 293 293 291 293 289 287 287 287 284 289 299 304 306 306 307 307 309 310 309 310 311 312 311 310 311 313
298 301 302 306 306 304 297 286 286 286 290 293 292 293 293 293 292 292 291 292 291 292 290 290 291 290 290 291 291 290 294 287 292 292 292 293 294 297 297 297 299 299 297 300 296 300 291 292 291 287 286 289 292 295 294 295 297 294 294 295 293 293 291 292 293 292 288 289 290 288 283 288 298 305 306 306 307 307 307 309 309 308 309 309 307 307 307 307
297 298 300 302 303 304 296 293 291 284 290 289 289 290 290 291 293 294 292 292 293 292 291 291 292 292 292 292 291 292 292 291 290 293 293 293 294 296 299 297 299 301 304 303 305 303 294 290 289 284 281 279 278 281 285 289 292 292 292 293 294 293 292 293 288 290 286 288 288 288 288 292 299 303 303 305 305 302 302 302 301 301 301 301 301 301 302 302
296 290 293 297 297 297 295 294 294 293 290 289 286 289 289 288 291 291 292 293 292 292 292 292 291 292 290 290 291 290 289 292 290 290 290 291 295 297 297 298 297 300 305 306 304 300 290 290 290 289 288 287 288 289 288 288 291 292 291 290 291 291 291 290 292 289 287 287 288 292 293 294 295 299 301 303 303 300 298 298 298 298 299 300 299 299 299 300
295 292 286 290 294 293 292 291 293 292 290 291 286 288 287 288 288 291 293 290 292 291 292 290 289 289 288 288 287 288 288 289 290 290 288 289 291 294 296 297 299 299 304 302 303 296 294 290 289 290 289 290 290 290 291 291 289 286 288 290 292 292 291 291 289 288 293 289 286 292 293 295 295 299 301 300 298 297 296 296 296 296 297 298 298 298 298 298
291 289 292 295 291 288 288 287 291 291 290 290 289 289 287 287 288 286 292 292 292 293 290 290 290 288 288 287 287 285 287 287 288 286 289 289 290 292 295 298 297 297 300 299 300 301 295 288 290 290 288 291 291 291 291 290 289 289 289 289 290 291 293 291 286 288 291 289 288 293 294 295 297 299 300 298 296 294 294 294 295 296 296 297 297 297 296 296
294 292 294 293 291 288 290 289 291 291 290 290 289 288 288 287 287 288 288 291 291 291 291 285 288 287 288 288 287 286 286 285 284 288 288 288 286 286 292 293 296 296 295 299 298 298 296 290 292 291 289 290 291 291 291 290 288 288 289 289 290 293 291 292 291 293 294 292 293 294 294 291 292 294 294 294 295 294 294 295 295 295 294 295 295 295 295 295
293 294 293 292 292 291 290 289 289 290 288 288 286 287 288 287 287 289 290 288 286 289 292 288 287 288 288 288 288 286 286 287 286 284 289 288 290 288 285 289 287 291 294 294 296 297 295 289 293 292 290 289 290 292 291 289 289 287 288 289 289 291 293 293 293 292 294 294 294 294 292 290 293 295 293 294 294 294 293 292 292 293 294 294 294 293 294 294
297 297 297 293 289 289 291 287 289 289 287 287 287 287 288 288 287 287 288 290 289 288 290 286 288 288 286 286 289 288 289 288 289 289 290 289 286 293 290 292 291 285 287 291 292 295 296 288 292 293 287 287 290 290 289 289 288 287 285 286 287 288 288 289 288 290 291 290 292 293 290 288 290 293 292 293 293 292 291 291 291 292 293 293 293 293 293 294
297 296 294 293 287 287 286 284 284 287 285 286 287 287 288 288 288 287 285 287 289 291 291 290 290 290 286 288 289 292 293 291 291 291 291 291 292 291 292 292 294 290 290 291 291 291 292 292 289 289 287 285 288 290 289 288 288 286 283 284 286 288 289 291 292 291 290 290 290 289 290 291 291 292 290 289 290 290 290 291 291 292 292 292 292 292 293 293
Wind_Speed
11 11 11 11 10 10 9 9 10 10 10 10 9 9 9 10 10 10 10 10 11 11 12 12 12 13 13 13 14 14 13 10 10 5 3 10 6 6 9 4 13 13 5 10 10 12 6 7 7 0 4 1 1 4 1 1 1 2 4 1 5 4 3 4 6 5 3 4 8 10 7 9 13 12 6 4 4 4 6 6 5 8 9 9 13 17 18 17
12 12 11 11 11 10 10 9 9 8 8 9 9 10 10 10 10 10 10 11 11 11 12 12 13 13 14 13 14 14 11 8 10 7 15 8 5 8 8 4 9 11 8 10 13 8 12 5 5 6 6 4 2 2 1 3 2 3 2 2 9 2 0 3 1 2 4 8 10 7 2 5 8 5 5 7 3 2 4 5 6 10 12 13 15 17 17 17
12 12 12 12 12 11 11 10 10 10 10 10 10 10 10 10 10 11 11 11 12 12 12 13 14 14 14 13 14 9 9 5 4 2 0 9 12 9 9 7 8 11 6 7 4 9 10 12 9 8 2 4 1 4 2 3 3 1 4 6 6 2 1 3 4 4 4 6 9 10 7 6 9 2 3 4 5 2 4 5 6 8 10 13 15 16 16 16
12 12 13 13 13 13 12 12 11 11 11 11 11 11 11 11 11 11 11 12 12 12 13 13 14 15 15 15 13 9 3 4 1 0 2 5 6 10 10 11 11 12 3 5 4 5 5 9 7 4 3 3 2 1 6 3 4 3 3 7 2 2 2 1 3 5 7 2 6 7 7 10 3 4 3 4 8 3 3 6 9 10 14 16 16 17 17 17
12 12 13 13 13 13 12 12 12 11 11 11 11 10 11 11 12 12 12 12 12 13 13 14 14 15 15 15 13 3 3 1 3 2 3 8 1 11 12 11 15 10 1 8 9 7 10 10 7 3 2 4 2 4 2 3 2 4 8 4 6 1 3 2 7 6 5 0 4 6 10 9 8 2 3 6 5 5 1 10 9 14 16 19 20 17 16 17
13 13 13 13 13 13 13 12 12 12 11 11 11 11 11 11 11 11 11 11 12 12 13 13 14 14 15 15 6 0 1 2 1 3 7 5 10 11 11 13 16 8 8 7 5 8 11 4 7 6 3 4 7 7 3 3 3 6 6 4 3 5 7 2 5 6 1 6 7 8 4 6 7 9 4 6 7 1 1 8 12 16 17 17 18 19 18 18
13 13 13 13 13 13 13 13 13 12 12 11 11 11 11 11 11 11 11 11 11 11 12 12 13 13 15 8 0 1 3 7 4 1 8 7 12 12 14 15 13 8 6 9 9 8 5 8 4 5 5 3 1 1 5 6 4 6 5 4 0 3 5 5 9 6 7 2 7 3 6 7 8 11 2 4 3 3 5 10 13 15 15 17 18 18 19 19
13 13 13 13 14 14 14 14 13 13 12 12 12 11 11 11 11 11 11 10 10 10 11 11 12 12 11 6 1 3 1 6 5 2 6 10 13 13 12 8 7 6 7 10 9 7 9 11 10 4 3 6 4 7 5 4 4 10 8 0 5 4 5 5 6 7 7 7 6 5 6 9 2 6 5 6 2 5 8 10 13 15 16 16 16 16 17 16
13 13 14 14 14 14 14 14 14 14 13 12 13 12 12 11 11 11 10 10 10 10 10 10 10 11 3 1 1 6 3 4 2 4 2 9 8 9 9 8 2 6 4 3 2 9 10 5 4 5 4 5 3 10 3 7 7 6 8 5 7 8 6 2 6 9 9 4 3 4 9 5 5 2 5 4 3 6 11 12 14 15 16 17 16 15 16 16
13 13 13 14 14 15 15 15 15 14 14 13 13 13 13 12 12 11 11 10 10 9 9 9 9 9 3 2 0 3 3 1 2 3 6 9 9 8 5 6 8 8 7 3 4 7 5 5 6 6 4 4 7 5 4 6 1 3 2 5 6 6 3 3 6 7 2 3 4 7 11 3 1 2 4 5 5 11 12 13 13 16 18 17 15 14 14 16
14 14 14 14 14 15 15 15 15 15 15 14 14 13 14 13 13 13 11 10 10 9 9 7 7 6 2 2 1 5 1 2 1 4 8 9 9 7 6 7 6 6 5 3 4 5 2 6 3 3 2 2 7 3 4 3 2 2 3 3 5 4 4 6 4 10 3 7 6 8 6 2 2 0 5 5 9 12 14 14 14 14 16 15 16 14 12 13
14 14 14 14 15 15 15 15 16 16 15 15 15 15 14 14 15 14 13 12 11 9 6 6 6 2 1 1 4 7 0 2 4 4 7 9 6 3 6 7 8 7 8 6 5 4 4 3 6 4 1 4 5 3 3 2 2 2 2 6 2 3 4 2 5 2 2 7 6 5 6 6 3 7 3 4 9 12 12 14 14 14 14 14 14 13 11 13
14 14 14 15 15 15 15 15 16 16 16 16 15 15 16 16 17 16 14 12 9 7 4 2 2 1 1 3 8 4 2 5 4 3 5 1 1 1 4 6 8 6 5 5 4 5 5 4 2 4 2 3 4 0 3 1 2 3 2 1 4 3 5 1 2 2 3 4 4 4 8 3 3 5 3 4 9 11 11 13 13 13 13 13 14 11 11 12
14 14 15 15 15 16 16 15 16 16 16 17 16 17 18 18 17 16 14 11 8 6 5 4 2 1 2 6 5 2 4 1 1 4 7 2 1 3 2 2 1 1 2 3 2 2 5 3 2 1 1 2 1 2 1 1 2 3 2 1 1 3 2 1 2 2 4 1 1 5 7 6 5 1 2 4 10 13 12 12 12 14 14 13 14 12 13 13
14 15 15 15 16 16 16 16 16 16 17 17 18 18 19 20 17 14 10 6 3 4 6 5 2 2 0 6 6 8 5 3 3 10 5 8 8 1 4 3 3 2 0 1 1 1 2 6 1 4 3 1 1 1 1 2 3 2 2 3 1 2 1 10 4 1 4 3 3 6 4 5 5 5 0 5 9 11 10 12 12 12 13 13 14 13 13 13
15 15 15 15 16 16 17 17 16 16 17 18 19 20 19 16 13 6 2 4 4 8 6 4 1 1 2 6 2 6 5 2 3 6 5 9 9 6 4 6 5 4 4 2 1 2 3 6 4 2 1 1 1 0 2 1 1 3 3 3 3 1 1 4 2 1 1 2 4 3 3 3 1 3 0 7 10 11 10 12 12 13 15 14 14 11 12 12
15 15 15 16 16 16 17 17 17 17 17 18 21 18 14 11 5 7 8 8 4 3 2 2 3 2 2 1 2 2 3 4 1 1 2 6 7 7 11 8 5 5 2 3 2 1 1 4 1 2 3 1 1 3 2 3 4 2 2 3 1 5 1 2 3 2 7 5 4 5 3 5 9 3 2 7 10 11 11 12 13 13 13 14 14 14 13 12
15 15 15 16 16 16 17 17 18 17 18 18 19 14 8 10 5 7 8 5 3 2 1 1 2 2 7 3 4 2 2 2 2 2 3 1 6 7 4 4 5 7 5 4 2 5 1 3 1 3 2 2 3 4 7 6 4 3 3 3 3 2 4 3 2 1 9 2 6 1 5 9 11 4 6 7 11 12 12 12 13 13 14 14 14 15 15 13
15 15 16 16 16 16 17 17 17 18 17 18 15 9 5 1 1 1 5 1 2 1 1 2 3 5 4 2 2 3 2 2 2 2 2 6 4 3 4 5 11 11 4 3 2 3 2 2 1 3 6 6 7 7 6 3 3 4 3 1 2 5 2 2 3 6 3 8 9 9 7 8 10 10 5 7 10 12 14 12 11 13 14 15 15 15 14 14
15 15 16 16 16 16 17 17 16 17 18 13 8 3 1 1 0 2 1 1 5 7 2 3 6 4 11 3 3 5 4 2 2 2 4 3 10 6 3 3 3 3 4 6 3 3 2 5 7 8 7 4 4 7 8 4 4 4 2 2 5 6 5 2 4 5 5 6 9 10 8 6 9 10 10 6 6 10 12 13 13 13 14 15 16 16 16 16
16 16 16 16 16 16 16 16 15 17 17 7 3 1 1 2 1 2 3 9 8 7 9 8 14 13 6 5 2 6 4 3 2 1 3 4 6 13 4 4 4 4 2 2 4 2 3 7 5 5 6 9 9 6 5 5 1 4 3 4 7 2 8 4 6 5 0 4 4 0 4 7 10 11 11 4 7 11 14 14 15 16 16 15 18 18 15 15
16 16 16 16 16 16 16 16 17 16 6 1 1 3 1 1 2 2 1 6 2 9 10 12 4 12 5 5 1 1 3 4 8 8 2 6 7 8 3 5 4 8 3 4 3 4 4 7 7 6 5 4 5 6 5 6 5 3 4 3 5 7 3 5 5 3 1 5 7 1 6 8 12 13 12 3 7 9 11 14 16 17 17 15 15 16 13 11
15 15 15 16 16 16 17 16 15 6 2 1 2 3 2 2 3 2 1 4 8 3 6 4 6 11 11 4 6 7 7 9 9 4 7 7 5 4 9 7 7 4 3 4 8 4 5 6 8 3 5 7 4 4 6 4 2 4 3 4 9 2 4 4 4 2 4 2 6 7 10 10 11 10 10 3 5 7 6 10 13 14 16 17 17 17 16 17
15 15 15 15 16 17 16 16 5 1 2 3 4 5 2 3 3 3 3 4 6 5 5 6 8 3 6 4 5 12 12 5 7 8 5 10 8 4 7 10 7 5 8 9 10 9 5 2 1 8 9 10 6 4 6 4 6 3 5 6 7 1 5 7 4 3 5 5 5 7 6 8 6 7 2 5 2 4 7 10 12 13 14 15 13 15 19 21
15 15 15 16 16 17 18 13 3 2 5 5 5 5 5 4 3 2 3 4 1 4 2 1 2 5 5 2 6 9 4 2 10 2 6 12 6 6 5 3 5 7 9 6 4 4 7 3 5 7 3 4 6 4 6 5 6 3 7 10 8 8 9 9 1 4 4 3 2 1 3 4 1 3 5 3 3 3 1 5 10 13 14 13 14 17 17 17
15 15 15 15 16 17 16 1 2 5 6 3 1 2 3 4 4 2 1 3 4 2 2 1 3 1 4 3 5 3 5 5 5 6 5 6 8 6 4 4 3 10 7 8 5 2 4 5 9 7 7 6 6 6 3 7 5 3 4 12 14 12 8 1 2 1 4 3 3 1 4 3 2 5 3 4 6 4 1 1 5 7 11 13 15 16 18 17
15 15 15 14 14 15 5 1 2 7 3 1 3 4 4 4 3 2 2 2 1 1 2 1 3 1 2 2 7 3 3 0 2 5 8 4 10 1 8 6 2 4 4 3 2 5 4 4 6 4 6 6 4 7 5 9 5 5 1 5 6 6 7 9 8 7 4 3 4 3 5 6 8 2 2 4 6 7 1 3 6 3 7 12 14 16 17 18
16 15 14 13 12 9 4 6 8 3 5 2 2 5 5 4 1 1 0 1 0 1 2 1 2 2 1 0 5 5 2 3 1 1 4 1 2 1 4 9 11 9 5 5 8 2 6 6 8 7 6 4 7 9 6 10 6 3 2 6 6 9 7 5 6 5 1 2 5 2 4 3 5 2 2 2 6 4 5 6 8 7 4 9 14 16 18 19
15 15 14 13 13 12 6 5 3 7 2 1 5 5 5 2 1 1 1 1 1 2 3 4 1 1 2 2 5 7 4 2 4 1 0 2 2 1 8 8 3 7 3 10 8 3 2 5 9 9 8 7 7 4 11 13 8 5 5 3 3 3 3 5 3 4 2 2 5 3 5 5 7 3 3 1 3 4 7 12 10 9 6 6 10 13 13 11
16 15 14 14 11 5 1 3 9 6 3 6 6 7 2 2 1 1 2 3 4 1 2 3 2 4 3 2 4 3 7 3 0 2 4 4 5 2 5 2 6 7 5 3 3 0 2 3 3 5 9 9 7 3 8 14 7 5 7 4 3 3 2 3 1 2 3 2 8 3 7 4 6 3 3 2 3 4 9 9 9 10 7 4 7 9 8 8
16 15 14 13 5 3 2 4 7 6 5 4 7 2 2 4 2 3 3 1 2 2 2 3 2 1 6 7 4 1 4 4 1 5 5 2 4 3 4 6 4 4 2 1 5 1 1 3 2 4 1 3 2 3 1 1 2 1 1 1 2 2 1 2 2 2 2 5 1 1 2 5 7 2 1 1 4 6 8 12 13 10 7 3 3 6 6 7
17 17 16 9 7 4 3 3 1 2 2 6 6 2 3 3 2 3 2 2 1 4 3 5 1 4 6 2 3 3 1 2 4 5 7 8 8 9 8 8 7 4 4 5 6 4 4 8 3 4 2 7 3 5 3 3 3 5 3 1 4 1 1 2 3 3 5 4 3 2 5 2 10 7 4 4 6 8 8 9 9 6 5 2 2 6 8 9
17 18 20 12 10 8 12 11 3 6 8 7 2 2 2 2 3 2 2 4 1 3 2 1 6 10 7 5 1 3 1 2 2 3 4 3 8 6 4 1 4 4 4 3 3 0 3 0 1 5 1 6 6 8 4 3 6 7 7 6 5 4 2 1 2 1 3 1 1 2 1 5 3 1 6 5 7 7 8 6 6 5 4 8 4 9 8 7
19 20 12 7 7 10 7 4 4 2 2 0 1 4 5 2 2 1 1 1 2 2 4 3 8 6 1 0 3 4 2 1 4 3 4 4 6 6 5 1 4 4 4 1 5 5 3 4 6 7 4 7 12 11 10 4 8 9 3 9 5 6 4 3 5 4 6 3 3 2 5 3 5 4 2 6 4 5 6 5 8 9 7 10 10 9 8 9
21 15 7 5 5 9 11 9 1 1 2 1 5 3 4 4 1 1 1 2 2 3 4 2 4 3 3 1 3 2 1 2 3 5 3 7 6 6 8 9 2 3 3 4 1 1 4 5 3 5 2 4 12 8 5 6 4 2 1 2 1 4 1 5 1 3 3 1 2 4 2 0 1 3 3 2 3 5 7 8 10 10 9 9 10 11 8 7
13 2 1 2 2 2 8 8 6 0 1 3 4 1 3 2 2 2 2 2 1 4 8 5 3 2 2 3 1 3 3 2 2 1 1 2 1 6 1 0 6 9 6 5 3 3 1 3 1 2 3 7 8 6 7 7 5 5 5 7 4 3 4 4 2 4 2 1 2 2 5 3 4 1 5 3 4 8 9 9 9 9 8 9 9 8 9 8
6 6 1 1 2 1 6 8 7 4 2 4 3 2 2 2 3 3 1 1 2 2 2 3 2 2 4 3 3 6 4 2 1 1 3 0 1 4 3 3 2 4 7 5 2 3 2 2 1 3 5 2 2 2 1 1 3 7 6 4 4 1 3 2 3 1 0 4 1 1 1 4 3 1 2 4 6 6 8 9 9 8 7 7 8 7 7 7
6 4 3 2 2 3 7 9 8 2 3 3 1 1 1 2 1 2 1 1 1 1 1 0 2 2 1 2 3 4 7 1 2 1 2 2 1 2 1 3 3 6 8 2 5 2 3 6 4 2 2 1 1 4 4 2 2 2 2 4 5 2 4 2 1 2 2 2 2 1 1 4 4 1 4 4 3 6 6 6 7 7 6 8 9 9 5 5
3 2 3 3 1 5 6 8 1 1 2 3 0 0 1 3 2 3 3 1 2 2 0 2 2 2 2 2 3 2 3 3 2 1 2 3 3 2 2 0 1 1 2 5 5 2 1 3 2 1 3 2 1 1 3 5 2 3 2 4 3 3 0 4 2 1 2 1 0 1 0 2 4 2 6 6 4 7 7 6 6 5 4 5 7 6 5 4
0 1 3 3 4 3 6 2 1 4 3 1 2 2 0 2 2 4 3 3 1 2 1 1 2 3 2 3 1 3 1 2 2 1 2 2 2 1 1 1 1 1 2 5 3 0 2 1 3 1 3 2 3 1 2 3 6 4 4 2 2 2 1 2 2 1 3 1 1 0 2 2 3 1 3 3 3 7 7 8 8 6 4 4 4 5 5 5
1 1 2 2 3 5 2 1 4 3 2 0 1 1 0 2 3 3 2 4 3 2 3 2 2 2 1 4 1 1 2 1 1 1 0 1 1 2 1 1 2 3 1 4 6 2 1 1 4 2 5 3 1 1 2 1 1 2 4 7 6 7 6 6 4 3 1 3 2 2 2 2 2 2 3 4 3 7 7 9 8 7 5 6 5 6 6 5
1 3 1 2 5 3 0 2 2 0 2 1 1 2 1 2 1 3 2 2 4 2 2 2 2 4 1 4 3 2 2 3 0 1 1 0 2 2 1 2 1 3 1 3 4 1 2 2 1 2 3 1 1 4 2 1 3 2 1 1 1 1 0 5 6 3 1 1 2 1 1 1 1 1 2 3 3 7 9 10 9 8 7 6 5 4 4 4
3 3 2 4 4 2 3 3 1 1 1 1 3 3 2 2 2 1 2 2 2 1 1 2 3 3 2 3 0 2 2 3 2 1 2 0 2 4 6 8 3 2 2 1 2 1 2 1 4 1 2 3 3 1 3 1 3 3 4 3 1 3 1 3 3 2 4 4 3 1 2 1 1 2 3 3 2 2 5 9 11 9 8 7 7 8 7 5
2 3 3 1 1 1 1 1 2 1 1 3 2 3 1 2 1 2 1 2 1 2 1 1 1 2 2 0 2 2 2 2 2 1 2 1 3 3 5 8 3 3 3 2 2 2 1 1 1 1 1 0 1 2 2 2 2 3 2 3 3 1 1 1 3 1 1 4 1 4 5 2 1 2 6 6 5 5 5 5 7 8 7 7 7 7 7 9
4 1 3 2 3 1 1 2 2 0 1 2 3 4 5 0 2 2 2 2 1 1 0 1 1 2 1 1 2 2 1 1 3 3 2 0 0 3 9 10 11 3 3 2 5 7 1 0 1 3 4 5 3 3 4 3 1 2 1 4 6 6 4 2 3 3 5 2 3 3 2 4 1 4 7 6 7 9 8 8 10 10 9 7 7 8 7 8
2 3 3 2 4 3 3 1 1 2 1 0 1 1 0 3 1 1 3 1 1 1 1 3 1 1 3 4 3 4 4 1 1 3 4 4 4 4 3 11 8 8 3 7 6 5 3 2 1 1 3 4 1 2 2 2 1 2 3 6 8 5 3 2 1 2 5 3 4 2 2 6 4 6 7 7 5 8 7 8 9 9 9 9 8 8 9 9
1 4 2 1 1 4 2 2 1 1 0 2 0 2 3 3 3 3 2 0 2 2 1 4 4 3 4 3 3 2 1 3 2 1 5 4 3 1 7 3 10 10 12 1 2 4 4 3 1 6 5 2 1 3 2 3 2 3 4 5 6 8 4 1 2 1 3 7 3 3 5 6 6 6 5 7 8 8 7 7 8 8 8 8 7 7 9 11
1 1 2 1 1 1 2 1 1 3 2 1 1 1 2 2 4 2 3 1 2 2 0 1 6 5 3 3 1 1 5 3 4 2 4 2 2 5 1 3 3 10 11 1 3 1 4 2 4 3 3 2 1 4 5 8 7 6 7 7 8 9 8 4 2 2 6 1 1 6 8 8 7 4 6 7 7 9 8 8 8 9 8 7 8 10 12 12
1 2 1 2 2 0 1 2 2 4 5 1 1 1 2 3 3 1 1 3 3 3 4 1 4 5 3 1 0 1 3 1 1 2 3 5 3 4 2 2 4 7 12 3 4 1 2 3 3 2 6 4 4 4 1 7 5 7 10 9 8 8 8 8 7 6 4 3 4 9 10 9 6 6 7 8 7 10 9 7 8 9 9 9 10 12 12 11
3 2 2 4 5 3 1 2 2 2 3 3 1 2 1 2 3 5 0 1 1 2 1 2 4 4 5 5 4 3 3 3 3 2 2 3 4 1 0 2 3 7 6 6 4 3 2 1 3 3 3 3 5 5 5 3 4 7 9 10 10 7 7 8 6 7 6 7 7 9 9 7 6 7 9 8 8 8 10 11 10 9 9 10 12 12 12 12
0 0 2 6 3 3 1 3 2 3 1 3 2 1 1 2 2 2 4 2 0 1 2 2 1 3 1 4 3 1 2 1 4 6 7 4 3 1 3 2 5 4 6 4 5 5 4 2 1 1 3 2 4 6 4 5 5 8 8 11 11 10 6 7 4 5 3 2 6 8 5 3 5 8 10 9 9 11 12 11 10 10 10 11 13 12 12 12
1 1 1 4 2 3 1 1 1 1 1 1 1 2 1 1 1 2 1 0 1 3 1 1 2 1 1 1 3 7 5 5 7 8 6 6 6 4 4 4 5 3 3 4 2 2 2 5 3 2 3 1 3 3 3 1 2 1 5 7 8 5 4 3 2 7 5 5 3 3 3 5 8 7 11 9 11 11 11 9 9 11 12 13 13 13 12 12
Wind_Direction
351 350 348 350 350 351 355 360 359 359 357 355 353 352 350 347 346 345 343 342 341 339 338 338 339 332 330 324 322 319 325 317 308 288 253 243 225 168 183 47 166 196 199 127 129 126 95 113 111 311 117 146 49 168 65 204 45 196 189 177 227 236 191 166 206 193 53 318 344 338 359 339 332 346 351 274 83 78 80 68 63 64 63 91 114 131 138 144
351 349 348 346 347 348 351 355 358 356 357 356 350 350 350 346 344 344 345 342 342 339 340 340 339 336 329 326 324 325 332 313 289 272 237 231 208 183 187 110 155 181 159 135 151 138 126 119 135 150 137 130 314 139 326 147 268 191 100 216 241 155 169 188 48 259 320 341 322 323 347 337 316 320 337 335 24 158 143 73 88 81 96 108 127 136 143 146
351 349 345 346 345 347 349 351 353 354 354 353 351 349 348 346 344 344 343 342 341 342 342 339 337 334 330 327 325 348 341 311 271 254 190 232 236 205 186 166 156 176 193 149 169 147 151 157 153 134 41 116 344 152 234 126 222 153 213 216 227 112 129 218 246 296 240 291 313 328 330 320 307 282 317 301 333 220 210 125 121 121 127 130 138 143 144 148
351 348 346 346 343 344 346 347 350 352 352 352 349 349 346 345 344 343 342 341 341 342 342 340 336 335 329 327 330 338 330 288 160 40 254 272 285 184 176 171 161 174 116 83 132 102 83 108 129 133 109 132 121 235 173 156 208 138 223 232 68 165 239 137 217 262 289 252 303 318 307 302 35 328 285 333 313 218 163 165 168 161 148 147 150 152 152 154
350 348 345 345 343 342 344 343 345 349 349 348 349 346 346 344 343 343 341 340 342 342 341 340 338 333 330 325 329 338 324 260 132 243 295 305 132 157 163 160 164 156 112 129 95 96 127 136 136 49 106 135 134 138 234 167 302 138 235 77 126 76 296 307 296 290 279 336 304 301 312 315 321 236 267 291 281 313 87 173 171 162 158 157 158 158 156 158
348 348 345 342 341 342 340 341 343 344 346 344 346 345 342 342 341 339 339 340 341 341 340 341 336 336 329 330 316 212 282 345 43 318 331 325 140 144 141 150 145 128 132 118 111 128 121 108 148 149 146 153 168 175 158 194 167 229 237 253 205 248 272 280 277 279 38 308 303 305 308 321 302 304 269 240 241 274 228 173 171 169 165 165 159 156 160 160
347 346 343 342 342 340 340 339 339 341 339 342 342 341 340 339 338 338 337 338 338 338 340 339 336 337 336 332 165 312 83 276 336 286 353 107 136 130 129 130 127 131 129 114 128 134 142 133 151 150 141 89 117 177 152 180 209 249 246 72 332 145 229 234 264 279 290 256 270 270 305 286 299 319 90 272 264 227 190 174 172 165 162 158 160 164 162 164
346 344 342 341 341 339 337 338 337 336 340 339 339 338 337 335 334 333 334 333 333 336 338 338 337 342 354 350 329 312 176 253 266 312 9 122 133 124 118 100 120 125 138 144 145 129 144 151 170 137 152 175 162 182 154 163 193 225 249 263 264 232 238 259 261 275 271 260 268 270 274 275 237 272 349 287 181 185 161 159 159 160 162 164 163 164 163 160
344 342 341 341 339 338 339 336 336 336 336 338 336 335 334 330 328 328 327 328 329 329 337 335 334 347 45 351 94 327 278 239 242 318 123 117 124 112 133 127 151 133 112 119 163 151 157 201 144 205 190 185 170 180 147 183 221 222 246 256 271 264 268 250 277 265 265 281 205 250 267 273 285 287 246 296 166 170 150 150 158 162 164 164 170 169 167 163
340 341 340 339 339 339 338 336 335 335 335 333 335 334 327 328 323 323 322 324 322 327 328 333 344 346 19 358 9 346 266 238 23 60 110 117 115 119 56 125 147 133 132 126 126 156 194 176 183 192 137 68 161 163 155 204 219 142 202 229 258 273 317 278 242 276 288 253 170 255 279 310 3 0 279 89 140 153 153 155 161 166 169 169 170 169 172 167
338 340 340 340 339 338 338 336 335 334 334 334 332 330 327 322 323 317 319 317 319 318 327 323 2 352 48 8 65 258 202 109 71 124 124 126 136 136 132 152 160 142 115 125 179 194 136 168 193 126 249 185 162 149 191 182 352 226 256 273 242 278 248 244 279 266 302 286 183 209 259 50 272 146 280 113 160 162 157 159 163 172 173 175 168 169 169 174
338 338 339 339 339 338 338 338 336 335 334 332 330 328 326 322 317 317 314 312 308 316 320 298 53 20 67 108 215 228 218 111 143 129 139 146 149 145 154 165 184 159 156 163 205 197 180 154 155 191 137 153 158 126 225 233 230 289 348 282 328 332 309 115 234 283 145 256 174 169 274 238 131 242 20 162 163 169 162 161 166 173 177 178 170 170 172 178
338 338 339 340 339 338 338 337 337 334 333 330 328 327 323 320 315 312 308 306 302 302 326 324 111 95 27 291 228 229 38 133 107 76 167 75 64 220 162 183 195 186 172 156 192 211 184 155 175 167 126 206 147 268 112 97 261 308 167 292 299 333 303 102 277 251 236 261 84 157 268 260 198 247 352 211 171 173 172 169 167 177 178 179 179 177 177 179
337 337 339 339 339 337 337 337 336 334 331 328 328 326 324 318 313 307 303 293 292 268 234 203 115 145 98 241 272 239 225 207 7 291 238 210 294 292 157 186 212 91 11 97 162 162 164 184 175 160 134 206 119 180 192 27 4 241 42 156 331 312 294 185 327 352 270 67 237 181 251 272 274 21 337 194 183 180 179 177 174 181 181 184 185 179 183 185
337 337 338 338 338 337 337 336 335 333 329 328 327 327 322 319 314 307 299 298 265 203 177 97 79 134 178 268 261 269 195 104 228 237 163 173 197 189 187 133 151 156 221 162 115 145 134 147 159 178 194 63 272 286 46 345 37 354 258 228 111 244 118 323 84 336 14 42 20 193 245 275 306 333 55 182 191 191 191 184 182 187 190 189 187 183 185 190
336 337 337 336 337 336 336 335 335 334 329 329 329 327 326 319 320 333 353 124 102 136 133 127 132 153 305 291 80 90 120 184 236 245 195 190 178 203 129 137 119 115 150 223 43 104 136 152 166 190 202 222 258 88 19 251 135 27 255 262 287 154 323 281 118 325 130 282 53 327 301 331 223 141 66 189 195 196 202 194 192 193 197 195 192 184 189 186
336 335 336 335 334 335 334 334 334 332 331 331 328 329 326 317 26 80 104 117 101 95 165 86 136 192 302 87 269 270 242 229 288 157 106 200 180 146 123 119 137 132 174 83 97 163 97 170 51 118 17 212 87 108 215 260 245 208 32 254 58 283 108 235 323 118 6 14 334 49 314 278 287 152 143 187 199 201 209 207 205 199 203 203 201 196 191 193
333 334 334 333 333 334 335 332 332 333 331 333 330 329 320 306 42 80 92 91 94 93 35 117 185 294 252 45 243 191 36 309 287 103 70 170 167 149 141 132 103 124 133 95 75 178 259 163 297 172 141 124 172 172 199 224 206 204 198 240 230 177 215 300 271 98 331 73 313 225 265 274 276 260 177 199 204 203 212 213 208 205 204 205 208 207 201 199
333 332 333 331 332 332 332 332 331 330 332 332 333 332 331 1 355 133 98 159 169 105 278 184 166 176 217 151 285 306 246 219 271 197 145 131 156 148 88 82 129 134 145 175 124 192 92 125 98 162 198 183 187 196 210 119 158 140 133 288 265 285 226 211 227 290 297 309 308 297 285 288 289 288 188 202 206 208 215 217 217 215 212 209 211 213 208 206
331 332 330 330 331 330 331 329 328 327 333 332 346 355 267 245 291 247 204 296 225 233 292 174 225 330 306 231 252 272 260 56 257 69 88 134 131 158 81 123 83 80 135 198 123 226 193 175 193 197 201 150 164 195 203 180 138 111 132 259 277 284 275 178 220 253 239 258 257 269 265 249 270 272 273 171 196 213 218 216 216 216 215 214 213 214 212 210
330 330 328 328 328 330 328 327 326 327 330 318 330 309 274 142 39 299 284 240 228 248 254 226 195 215 215 60 41 28 24 324 39 315 161 160 136 145 169 150 140 184 173 85 133 103 181 212 222 217 140 167 190 183 115 105 173 194 235 251 274 235 280 102 285 251 66 222 280 203 283 265 260 271 271 140 187 211 214 213 213 214 214 214 213 212 212 212
329 327 327 326 326 327 326 324 328 334 345 115 154 258 349 233 15 348 13 305 273 234 229 245 296 270 332 299 52 141 52 302 273 241 195 185 157 194 149 179 159 200 90 140 111 159 193 220 217 194 178 85 81 134 162 169 159 166 227 252 272 262 308 276 262 278 234 202 265 258 268 270 270 266 271 208 208 230 221 214 212 210 211 214 213 209 203 200
327 325 323 325 325 325 325 325 333 31 5 38 337 284 241 41 324 302 263 270 274 250 239 222 243 253 269 243 233 162 204 207 249 174 191 174 136 230 143 169 189 136 121 171 194 158 218 231 232 164 151 133 75 129 143 107 149 190 180 220 252 34 319 282 210 128 185 238 292 277 284 277 277 276 267 276 221 248 255 247 236 217 209 210 208 201 196 197
324 324 323 324 325 324 325 328 357 124 50 336 273 232 332 315 342 337 161 267 320 304 196 207 207 238 241 250 183 178 183 211 180 241 146 167 169 144 153 186 146 156 196 182 197 204 202 13 357 145 169 170 163 150 152 193 226 197 223 235 255 223 221 240 290 323 282 237 240 266 267 268 242 269 223 141 167 259 255 248 244 237 227 216 208 203 203 199
323 324 325 325 328 326 324 327 60 11 317 300 240 253 280 299 319 297 226 291 196 260 121 126 202 232 230 85 145 180 214 342 229 24 169 165 122 147 189 89 143 207 201 165 127 203 238 200 120 122 145 184 141 160 199 183 243 232 213 222 241 230 240 231 319 313 309 283 114 287 259 252 117 241 249 287 308 289 310 257 241 234 226 218 207 203 204 211
323 323 327 328 330 333 315 244 28 337 315 261 165 107 309 313 319 274 208 61 319 289 274 15 175 121 141 107 160 208 146 222 236 201 176 192 155 142 104 167 196 213 166 154 183 236 243 128 169 158 163 187 199 206 198 188 244 254 251 196 217 228 227 150 175 200 264 243 106 292 326 285 249 276 271 315 304 291 81 330 291 239 220 216 212 204 201 202
324 323 325 330 333 341 353 37 359 315 275 198 90 339 324 311 282 189 266 9 334 266 99 3 188 103 185 170 170 191 187 186 35 157 179 197 180 327 170 164 100 37 114 125 74 223 142 148 172 147 168 175 179 226 191 188 203 242 180 175 203 207 206 207 201 215 248 355 280 166 238 268 287 257 195 303 289 289 314 18 9 333 228 213 214 214 208 206
322 322 323 326 330 338 298 300 319 309 248 70 357 332 318 315 120 339 349 71 253 267 41 209 266 112 296 240 179 218 43 315 156 71 255 145 177 307 241 175 193 165 154 151 216 111 153 168 177 170 182 179 215 218 158 182 190 240 165 176 173 201 209 174 196 208 266 314 280 203 151 241 251 227 170 311 290 289 337 358 352 349 300 235 222 219 218 216
320 320 322 323 325 316 285 254 265 246 225 343 339 336 333 336 212 96 132 102 248 46 163 147 303 298 19 138 205 249 321 335 4 39 236 159 299 150 207 195 170 129 167 183 219 120 271 195 205 175 168 207 212 177 161 177 203 248 127 116 71 94 108 187 191 191 176 218 261 208 175 259 274 279 266 132 247 303 338 334 333 337 321 258 238 232 232 231
318 319 319 324 323 322 7 219 228 231 289 329 330 329 322 132 167 227 33 236 341 115 19 296 158 313 3 255 245 216 236 290 226 57 128 176 168 35 16 99 130 134 171 321 314 153 10 337 142 155 200 216 204 171 166 185 175 86 133 137 106 77 101 92 111 174 162 227 249 128 182 233 287 267 250 251 43 336 319 317 324 328 321 267 254 247 234 221
316 315 316 317 301 315 315 263 253 259 270 314 311 300 143 43 175 86 181 245 342 321 312 37 2 349 9 16 333 27 231 236 255 161 139 185 139 40 144 89 63 97 72 221 253 341 313 69 208 219 143 62 163 151 275 321 76 214 134 183 151 138 112 161 118 194 219 254 40 288 218 185 241 238 225 53 335 329 321 317 322 323 318 296 240 230 201 135
314 311 307 302 268 257 220 251 143 119 21 336 328 42 150 196 13 188 199 299 246 8 11 325 314 346 333 31 230 282 261 175 190 172 160 181 167 174 186 186 156 149 207 186 230 78 232 234 234 289 235 183 161 216 120 160 181 198 192 222 235 172 163 182 182 202 213 250 85 75 153 156 237 267 23 4 340 334 336 327 327 326 314 290 177 104 132 133
313 310 303 285 260 235 238 250 301 311 324 327 17 63 116 106 219 235 289 340 138 11 331 249 310 319 316 319 302 293 257 197 144 201 128 95 174 177 32 140 182 140 206 182 224 318 254 179 322 249 287 209 179 217 168 191 182 176 192 182 182 202 155 229 169 343 306 266 5 210 114 255 319 322 37 354 342 346 353 345 359 355 9 57 132 135 125 134
312 310 300 267 242 228 236 237 254 319 339 2 148 80 52 110 232 81 347 319 326 4 295 321 314 300 149 314 8 335 56 46 180 169 178 132 174 189 194 64 165 164 78 118 204 185 245 239 221 153 216 159 194 215 210 237 162 192 146 178 216 182 183 197 200 229 244 282 73 61 178 221 214 89 7 17 346 40 23 45 57 58 77 107 88 72 102 121
314 301 267 291 247 237 227 224 174 117 33 69 68 100 157 230 215 177 59 308 301 310 308 330 286 341 323 335 322 324 324 42 38 137 164 149 180 190 189 197 220 98 96 176 223 116 227 260 276 207 9 159 191 202 115 102 115 145 164 21 169 229 152 259 53 271 272 194 163 178 259 256 244 40 314 307 53 70 66 75 75 72 74 84 96 99 73 51
320 327 45 250 233 248 198 202 193 41 293 75 102 102 187 211 37 165 76 227 324 328 312 316 88 20 346 313 297 352 329 334 30 123 48 208 117 187 113 132 183 190 157 196 133 188 88 241 354 295 146 210 199 148 198 171 234 155 167 202 215 38 137 90 113 68 107 353 238 51 282 209 260 116 53 63 93 91 75 74 88 88 92 95 93 93 101 89
333 325 119 252 245 138 166 168 168 154 109 96 101 217 211 260 220 170 286 323 321 337 0 0 14 23 4 332 309 333 337 314 75 208 182 111 224 188 175 210 168 179 226 159 224 230 207 244 184 171 229 207 355 277 202 236 113 117 211 207 80 186 24 160 239 63 221 248 264 89 278 315 317 196 51 99 88 95 93 89 96 107 105 106 106 97 106 117
330 329 280 340 4 118 143 155 145 122 79 95 165 301 236 106 176 248 333 292 104 38 39 187 301 13 17 331 303 333 330 328 13 341 146 189 165 98 111 169 194 208 211 254 222 201 177 265 253 221 279 247 332 164 117 110 298 264 336 132 198 175 204 46 140 225 205 226 257 144 276 260 235 191 175 115 98 115 118 115 108 106 112 122 133 130 146 100
290 300 84 7 64 134 143 151 193 109 57 100 279 300 190 265 279 216 212 135 161 98 217 233 272 15 30 302 259 279 307 358 343 25 197 202 183 304 4 166 88 128 336 177 201 117 263 232 252 208 189 16 0 167 226 170 161 106 141 151 15 265 158 169 194 32 263 252 118 188 204 270 175 123 141 121 125 142 143 139 117 107 121 124 129 129 125 121
40 108 59 26 106 110 136 175 354 56 71 174 180 235 20 279 270 253 215 241 275 181 254 287 153 295 273 260 240 309 290 267 295 305 247 2 194 124 114 25 10 344 38 211 188 175 173 338 241 146 241 284 190 338 270 174 188 168 202 195 177 53 319 16 72 233 250 202 207 237 246 219 75 86 120 152 147 127 139 129 118 110 124 157 157 146 140 136
273 100 80 67 121 128 171 20 54 44 98 314 242 291 27 280 326 277 294 200 236 247 241 180 173 241 267 331 312 156 288 271 244 264 273 75 7 188 13 21 10 323 102 125 185 181 138 172 223 342 279 263 315 8 215 236 320 314 220 203 199 151 171 193 212 90 246 218 193 193 248 101 114 228 187 182 173 128 126 127 127 119 111 120 142 150 156 138
98 119 120 84 139 174 330 35 45 339 83 172 43 180 300 340 289 290 319 44 212 267 71 252 243 258 185 233 279 305 305 290 153 277 1 230 48 357 0 66 351 272 272 167 167 174 201 131 141 200 217 231 72 98 57 27 90 45 265 343 3 12 143 208 235 168 151 68 41 17 258 121 17 216 182 183 200 141 130 122 124 128 123 120 116 113 111 146
60 93 15 143 166 321 72 57 292 52 357 322 297 242 239 262 251 320 347 343 321 164 334 215 227 206 229 233 19 266 335 293 318 27 11 136 49 15 326 316 217 204 150 50 25 103 177 101 165 269 335 288 264 215 143 139 177 155 81 51 346 210 1 276 275 168 170 134 186 145 234 103 106 216 125 118 95 87 132 129 129 129 125 107 73 38 19 24
95 105 85 66 174 283 29 82 34 325 320 311 42 306 238 271 289 326 289 333 304 330 227 283 326 186 329 112 243 278 3 294 87 51 119 22 67 359 354 5 343 229 157 216 220 354 249 317 225 125 174 146 131 172 171 132 109 48 16 23 343 322 166 221 108 146 191 196 238 197 234 142 134 184 125 158 146 140 126 109 116 118 93 73 70 65 37 28
110 60 51 356 10 323 328 177 149 177 15 334 336 0 357 252 214 251 283 324 326 258 217 266 266 299 296 314 277 294 336 19 289 43 2 170 60 329 344 4 341 337 334 204 117 164 100 56 184 205 193 195 177 197 214 197 133 345 63 354 29 23 14 212 187 169 237 129 191 201 199 67 289 166 136 121 109 78 58 64 63 58 61 53 43 39 41 43
144 121 307 61 7 48 87 32 74 152 124 265 16 358 214 347 347 350 182 236 290 305 188 280 325 148 32 346 27 18 5 85 351 358 2 346 332 46 322 345 345 339 358 80 115 113 105 108 43 137 246 259 30 10 40 334 300 190 347 16 0 4 332 258 34 149 223 148 200 201 34 129 142 133 145 138 122 90 70 54 57 64 65 65 60 56 51 47
113 107 149 172 357 23 41 7 125 58 73 193 92 334 358 346 284 310 159 217 41 19 70 38 0 37 350 21 18 325 339 300 9 139 21 334 324 18 288 45 306 338 339 91 20 97 105 101 91 99 52 43 10 288 4 350 78 24 4 359 7 10 348 227 245 280 85 129 221 140 141 131 148 146 142 122 91 82 74 68 69 70 74 77 70 67 55 46
118 220 112 349 139 151 114 18 60 108 65 263 357 320 347 348 15 32 315 105 287 18 240 203 55 77 78 49 275 20 344 340 14 11 326 19 307 323 45 136 263 339 339 32 334 153 129 126 178 105 98 63 81 72 93 94 68 69 48 22 18 11 32 69 28 325 344 259 281 122 140 127 113 73 93 87 104 99 88 81 81 87 79 65 62 60 57 53
58 126 128 311 159 309 113 119 135 120 105 36 109 9 0 16 10 299 261 316 23 19 21 21 25 36 50 9 2 24 5 16 16 354 21 339 45 315 14 341 156 18 347 0 24 42 112 64 136 125 119 76 55 70 87 112 112 64 43 34 20 36 57 71 68 39 26 41 64 126 116 85 48 60 65 83 93 99 94 88 73 62 58 63 64 59 56 57
174 143 144 11 72 99 65 93 131 124 71 340 85 0 307 358 344 346 12 202 0 351 349 42 15 54 45 24 17 48 16 22 22 315 72 1 350 310 280 221 329 334 344 353 322 14 288 134 139 162 114 73 46 66 58 71 132 83 46 32 22 35 65 46 48 26 29 72 92 122 113 86 52 69 80 70 79 81 76 65 63 60 62 66 68 64 60 60
4 58 153 129 93 357 52 17 55 79 109 347 69 356 340 31 344 5 286 295 15 8 5 15 43 126 36 31 346 279 224 255 257 260 298 299 286 354 318 8 120 298 333 348 349 330 1 114 45 163 155 123 40 28 50 72 82 88 45 13 5 9 35 356 20 1 346 98 135 134 125 101 99 85 77 75 74 77 81 74 70 67 65 69 70 67 64 63
95 75 88 105 99 337 25 107 58 116 78 217 209 272 223 342 322 337 307 253 250 244 214 284 226 154 158 187 241 243 245 251 273 282 271 269 275 282 244 251 201 246 328 317 311 24 5 129 148 155 173 120 45 7 16 5 62 319 26 341 327 334 349 329 41 24 19 318 171 160 89 96 130 118 99 78 80 77 73 64 68 70 69 69 69 67 66 62